Home   Weather   Modi'in-Maccabim-Re'ut   Past weeks

Flag for Israel Past Weather in Modi'in-Maccabim-Re'ut, Israel — Yesterday and Last 2 Weeks

73 °F


Feels Like: 76 °F
Forecast: 64 / 80 °F
Wind: 2 mph from North

Location: Ben Gurion International Airport

Current Time: Oct 23, 2016 at 9:06:54 PM

Latest Report: Oct 23, 2016 at 8:20 PM

Visibility: 10 mi

Pressure: 30.04 "Hg

Humidity: 61%

Dew Point: 59 °F

Location of Modi'in-Maccabim-Re'utLocation

Past Weather in Modi'in-Maccabim-Re'ut — Graph


Modi'in-Maccabim-Re'ut Temperature Yesterday

Maximum temperature yesterday: 81 °F (at 11:50 AM)
Minimum temperature yesterday: 64 °F (at 6:50 AM)
Average temperature yesterday: 73 °F

High & Low Weather Summary for the Past Weeks

High91 °F (Oct 13, 11:50 AM)89% (Oct 14, 11:50 PM)30.07 "Hg (Oct 14, 11:50 PM)
Low63 °F (Oct 16, 6:50 AM)22% (Oct 14, 10:50 AM)29.86 "Hg (Oct 16, 2:20 PM)
Average75 °F62%29.97 "Hg
* Reported Oct 8 7:20 PM — Oct 23 7:50 PM, Modi'in-Maccabim-Re'ut, Weather by CustomWeather, © 2016

Note: Actual official high and low records may vary slightly from our data, if they occured in-between our weather recording intervals... More about our weather records


Modi'in-Maccabim-Re'ut Weather History for the Previous 24 Hours

Scroll right to see more
Time TempWeatherWind HumidityBarometerVisibility
7:50 PM
Sun, Oct 23
73 °FClear.3 mph61%30.04 "Hg10 mi
7:20 PM75 °FClear.6 mph61%30.01 "Hg10 mi
6:50 PM75 °FClear.8 mph61%30.01 "Hg10 mi
6:20 PM75 °FPassing clouds.9 mph61%30.01 "HgN/A
5:50 PM77 °FPassing clouds.9 mph57%30.01 "HgN/A
5:20 PM77 °FPassing clouds.12 mph57%30.01 "HgN/A
4:50 PM79 °FPassing clouds.10 mph54%29.98 "HgN/A
4:20 PM79 °FScattered clouds.12 mph54%30.01 "HgN/A
3:50 PM79 °FScattered clouds.12 mph54%30.01 "HgN/A
3:20 PM79 °FScattered clouds.10 mph58%30.01 "HgN/A
2:50 PM79 °FScattered clouds.8 mph54%30.01 "HgN/A
2:20 PM79 °FScattered clouds.10 mph58%30.01 "HgN/A
1:50 PM79 °FScattered clouds.13 mph58%30.01 "HgN/A
1:20 PM79 °FScattered clouds.9 mph54%30.01 "HgN/A
12:50 PM79 °FPassing clouds.7 mph54%30.04 "HgN/A
12:20 PM79 °FScattered clouds.9 mph54%30.04 "HgN/A
11:50 AM79 °FScattered clouds.5 mph54%30.04 "HgN/A
11:20 AM77 °FScattered clouds.6 mph57%30.04 "HgN/A
10:50 AM77 °FScattered clouds.5 mph57%30.07 "HgN/A
10:20 AM77 °FScattered clouds.3 mph57%30.07 "HgN/A
9:50 AM77 °FScattered clouds.3 mph54%30.07 "HgN/A
9:20 AM75 °FPassing clouds.3 mph57%30.07 "HgN/A
8:50 AM72 °FPassing clouds.3 mph61%30.07 "HgN/A
8:20 AM70 °FPassing clouds.5 mph64%30.07 "HgN/A
7:50 AM68 °FPassing clouds.3 mph69%30.04 "HgN/A
7:20 AM66 °FPassing clouds.7 mph68%30.04 "HgN/A
6:50 AM66 °FPassing clouds.3 mph73%30.04 "HgN/A
6:20 AM66 °FPassing clouds.5 mph73%30.04 "HgN/A
5:50 AM66 °FPassing clouds.5 mph73%30.04 "HgN/A
5:20 AM66 °FPassing clouds.3 mph73%30.04 "HgN/A
4:50 AM66 °FPassing clouds.2 mph73%30.04 "HgN/A
4:20 AM66 °FPassing clouds.3 mph73%30.04 "HgN/A
3:50 AM66 °FPassing clouds.3 mph73%30.04 "HgN/A
3:20 AM68 °FPassing clouds.5 mph69%30.04 "HgN/A
2:50 AM68 °FPassing clouds.3 mph69%30.04 "HgN/A
2:20 AM66 °FPassing clouds.1 mph68%30.04 "HgN/A
1:50 AM68 °FPassing clouds.5 mph64%30.04 "HgN/A
1:20 AM68 °FPassing clouds.5 mph69%30.04 "HgN/A
12:50 AM70 °FPassing clouds.2 mph64%30.04 "HgN/A
12:20 AM70 °FPassing clouds.5 mph64%30.04 "HgN/A
11:50 PM
Sat, Oct 22
70 °FPassing clouds.3 mph64%30.04 "HgN/A
11:20 PM70 °FPassing clouds.2 mph64%30.07 "HgN/A
10:50 PM70 °FPassing clouds.2 mph64%30.07 "HgN/A
10:20 PM70 °FPassing clouds.2 mph64%30.04 "HgN/A
9:50 PM72 °FClear.3 mph61%30.04 "Hg10 mi
9:20 PM73 °FClear.2 mph61%30.04 "Hg10 mi
Weather by CustomWeather, © 2016

See weather overviewHow to use our weather pages